Regional Weather Roundup
Issued by NWS Kansas City/Pleasant Hill, MO

Home | Current Version | Previous Version | Text Only | Print | Product List | Glossary On
Versions: 1 2 3 4 5 6 7 8 9 10 11 12 13 14 15 16 17 18 19 20 21 22 23 24 25 26 27 28 29 30 31 32 33 34 35 36 37 38 39 40 41 42 43 44 45 46 47 48 49 50
000
ASUS43 KEAX 232310
RWREAX

WEATHER ROUNDUP FOR EASTERN KANSAS AND NORTHWEST MISSOURI
NATIONAL WEATHER SERVICE KANSAS CITY/PLEASANT HILL MO
500 PM CST THU FEB 23 2017

KSZ040-057-103>105-MOZ028-029-037-043-240000-
...KANSAS CITY METROPOLITAN AREA...

CITY           SKY/WX    TMP DP  RH WIND       PRES   REMARKS
K.C. INTL      FAIR      56  45  66 NE13      29.45R
K.C. DOWNTOWN  FAIR      56  45  66 E12       29.42F
LEES SUMMIT    FAIR      57  47  69 NE10      29.41F
OLATHE - IXD   FAIR      60  48  64 NE7       29.40F
OLATHE - OJC   FAIR      57  49  74 NE12      29.40F
LAWRENCE       FAIR      59  47  64 NE12      29.41S

$$

MOZ001>008-011>017-020>025-030>033-038>040-044>046-053-054-240000-
...NORTHERN AND CENTRAL MISSOURI...

CITY           SKY/WX    TMP DP  RH WIND       PRES   REMARKS
ST. JOSEPH     CLOUDY    55  46  71 NE13      29.47F
WARRENSBURG    FAIR      64  52  63 E10       29.40F
WHITEMAN AFB   PTSUNNY   66  57  72 E9        29.40F
CLINTON        FAIR      66  55  68 NE8       29.41S
SEDALIA        FAIR      68  55  63 E12       29.44F
WARSAW         NOT AVBL
CHILLICOTHE      N/A     51  46  83 E9        29.50F
KIRKSVILLE     CLOUDY    49  46  90 E16G22    29.51F

$$

MOZ041-047>049-056>058-063>065-088>090-097-240000-
...EASTERN AND SOUTHERN MISSOURI...

CITY           SKY/WX    TMP DP  RH WIND       PRES   REMARKS
ST. LOUIS INTL MOCLDY    67  55  65 SE14G24   29.56F
SPIRIT OF STL  MOCLDY    66  56  70 SE7       29.55S
COLUMBIA       FAIR      65  56  72 NE12      29.48F
JEFFERSON CITY FAIR      69  55  60 SE13      29.46S
ROLLA          FAIR      72  56  57 S14G23    29.49S
OSAGE BEACH    FAIR      76  52  43 S10G20    29.45F
SPRINGFIELD    FAIR      79  46  31 S18G30    29.43S
BRANSON        PTSUNNY   77  48  36 S17G23    29.50S
JOPLIN         FAIR      79  47  32 S14       29.38F
WEST PLAINS    FAIR      72  54  53 S16G26    29.55F

$$

IAZ060-094-KSZ022-034>040-054-083-096-NEZ052-066-093-240000-
...KANSAS...SOUTHEAST NEBRASKA AND IOWA...

CITY           SKY/WX    TMP DP  RH WIND       PRES   REMARKS
TOPEKA         FAIR      62  49  62 E12       29.40F
MANHATTAN      FAIR      52  41  66 NE17G24   29.43R
EMPORIA        FAIR      71  49  45 S7        29.36R
CHANUTE        FAIR      76  48  37 S15       29.34F
WICHITA        FAIR      73  49  42 SE12      29.29F
OMAHA          LGT RAIN  39  34  82 NE20G28   29.60F WCI  29
LINCOLN        TSTM      38  36  92 NE20G28   29.57F FOG     WCI  28
FALLS CITY     CLOUDY    49  41  74 NE17      29.47F
LAMONI         CLOUDY    48  42  80 NE10      29.56R
DES MOINES     CLOUDY    46  38  73 NE18G26   29.62S

$$




USA.gov is the U.S. government's official web portal to all federal, state and local government web resources and services.